Location: Janeiro
(34.9957°N, 76.7652°W)
Time: 19:11:18
(UTC+00:00)

Cosmos 1378 Rocket - Pass Details

Date: 14 December 2019
Orbit: 602 x 627 km, 82.5° (Epoch: 27 January)

Event Time Altitude Azimuth Distance (km) Brightness Sun altitude
Rises 23:36:51 0° 170° (S) 2,839 7.0 -19.9°
Reaches altitude 10° 23:39:07 10° 164° (SSE) 1,942 6.1 -20.4°
Enters shadow 23:41:47 32° 138° (SE) 1,037 4.4 -20.9°
